Weather History for Caldwell, NJ

Change the Weather History Date:

Thursday, August 1, 2013

  Actual Average Record
Temperature  
Mean Temperature 68 °F -  
Max Temperature 73 °F 82 °F 102 °F (1954)
Min Temperature 64 °F 61 °F 33 °F (1996)
Cooling Degree Days 3    
Growing Degree Days 18 (Base 50)    
Moisture  
Dew Point 65 °F    
Average Humidity 88    
Maximum Humidity 94    
Minimum Humidity 73    
Precipitation  
Precipitation 0.43 in - - ()
Sea Level Pressure  
Sea Level Pressure 29.92 in    
Wind  
Wind Speed 2 mph (SE)    
Max Wind Speed 9 mph    
Max Gust Speed -    
Visibility 5 miles    
Events Rain    
Averages and records for this station are not official NWS values.
T = Trace of Precipitation, MM = Missing Value Source: NWS Daily Summary

Daily Weather History Graph

Daily Weather History Graph

Search for Another Location

Airport:

Trip Planner

Search our weather history database for the weather conditions in past years. The results will help you decide how hot, cold, wet, or windy it might be!

Date:

Astronomy

Aug. 01, 2013 Rise Set
Actual Time 5:53 AM EDT 8:12 PM EDT
Civil Twilight 5:22 AM EDT 8:43 PM EDT
Nautical Twilight 4:44 AM EDT 9:21 PM EDT
Astronomical Twilight 4:02 AM EDT 10:03 PM EDT
Moon 1:27 AM EDT (8/1) 4:19 PM EDT (8/1)
Length of Visible Light 15h 20m
Length of Day
14h 19m
Waning Crescent, 23% of the Moon is Illuminated
Aug 1
Waning Crescent
Aug 6
New
Aug 14
First Quarter
Aug 20
Full
Aug 28
Last Quarter

Hourly Weather History & Observations

Time (EDT) Temp. Dew Point Humidity Pressure Visibility Wind Dir Wind Speed Gust Speed Precip Events Conditions
12:53 AM 66.9 °F 61.0 °F 81% 30.06 in 10.0 mi Calm Calm - N/A   Clear
1:53 AM 68.0 °F 62.1 °F 81% 30.04 in 10.0 mi Calm Calm - N/A   Partly Cloudy
2:53 AM 66.9 °F 62.1 °F 84% 30.03 in 10.0 mi Calm Calm - N/A   Mostly Cloudy
3:53 AM 68.0 °F 63.0 °F 84% 30.00 in 10.0 mi Calm Calm - N/A   Overcast
4:53 AM 66.9 °F 62.1 °F 84% 30.00 in 10.0 mi Calm Calm - N/A   Overcast
5:53 AM 66.9 °F 63.0 °F 87% 30.00 in 10.0 mi Calm Calm - N/A   Clear
6:53 AM 68.0 °F 63.0 °F 84% 29.99 in 9.0 mi Calm Calm - N/A   Clear
7:53 AM 71.1 °F 64.0 °F 78% 29.99 in 9.0 mi Calm Calm - N/A   Mostly Cloudy
8:53 AM 72.0 °F 63.0 °F 73% 29.98 in 10.0 mi Variable 3.5 mph - N/A   Overcast
9:53 AM 71.1 °F 64.9 °F 81% 29.98 in 8.0 mi Variable 4.6 mph - 0.00 in   Overcast
10:40 AM 69.8 °F 64.4 °F 83% 29.97 in 2.5 mi Variable 5.8 mph - 0.02 in Rain Light Rain
10:53 AM 69.1 °F 64.9 °F 87% 29.99 in 1.8 mi SSW 6.9 mph - 0.06 in Rain Rain
11:21 AM 66.2 °F 64.4 °F 94% 29.97 in 2.5 mi SW 4.6 mph - 0.08 in Rain Light Rain
11:29 AM 66.2 °F 64.4 °F 94% 29.97 in 4.0 mi SW 3.5 mph - 0.08 in Rain Light Rain
11:50 AM 66.2 °F 62.6 °F 88% 29.95 in 1.8 mi South 9.2 mph - 0.13 in Rain Rain
11:51 AM 66.9 °F 62.1 °F 84% 29.97 in 1.8 mi South 8.1 mph - 0.13 in Rain Rain
11:55 AM 66.2 °F 62.6 °F 88% 29.95 in 3.0 mi South 8.1 mph - 0.00 in Rain Light Rain
12:38 PM 66.2 °F 62.6 °F 88% 29.96 in 2.0 mi Variable 3.5 mph - 0.04 in Rain Rain
12:46 PM 66.2 °F 62.6 °F 88% 29.96 in 1.2 mi Calm Calm - 0.07 in Rain Rain
12:53 PM 64.9 °F 63.0 °F 93% 29.97 in 1.2 mi Variable 3.5 mph - 0.09 in Rain Rain
1:03 PM 66.2 °F 62.6 °F 88% 29.95 in 3.0 mi Calm Calm - 0.00 in Rain Light Rain
1:14 PM 66.2 °F 64.4 °F 94% 29.95 in 2.5 mi Calm Calm - 0.01 in Rain Light Rain
1:27 PM 66.2 °F 62.6 °F 88% 29.94 in 4.0 mi Calm Calm - 0.02 in Rain Light Rain
1:53 PM 66.9 °F 64.0 °F 90% 29.95 in 4.0 mi Calm Calm - 0.02 in   Overcast
2:33 PM 68.0 °F 64.4 °F 88% 29.92 in 5.0 mi SSE 6.9 mph - N/A   Overcast
2:53 PM 68.0 °F 64.0 °F 87% 29.93 in 6.0 mi SSE 5.8 mph - 0.00 in Rain Light Rain
3:02 PM 68.0 °F 64.4 °F 88% 29.91 in 4.0 mi SSE 5.8 mph - 0.00 in Rain Light Rain
3:36 PM 66.2 °F 64.4 °F 94% 29.90 in 4.0 mi SE 9.2 mph - 0.01 in Rain Light Rain
3:53 PM 66.9 °F 64.0 °F 90% 29.91 in 6.0 mi ESE 9.2 mph - 0.02 in Rain Light Rain
4:16 PM 66.2 °F 64.4 °F 94% 29.89 in 5.0 mi ESE 4.6 mph - 0.02 in Rain Light Rain
4:50 PM 66.2 °F 64.4 °F 94% 29.88 in 5.0 mi East 4.6 mph - 0.02 in Rain Light Rain
4:53 PM 66.9 °F 64.9 °F 93% 29.89 in 3.0 mi East 4.6 mph - 0.04 in Rain Light Rain
4:57 PM 66.2 °F 64.4 °F 94% 29.88 in 2.5 mi East 6.9 mph - 0.00 in Rain Rain
5:09 PM 68.0 °F 64.4 °F 88% 29.88 in 3.0 mi ESE 5.8 mph - 0.01 in Rain Light Rain
5:24 PM 68.0 °F 64.4 °F 88% 29.88 in 2.5 mi SE 3.5 mph - 0.01 in Rain Light Rain
5:35 PM 68.0 °F 64.4 °F 88% 29.88 in 3.0 mi SSE 5.8 mph - 0.01 in Rain Light Rain
5:50 PM 68.0 °F 66.2 °F 94% 29.87 in 2.5 mi SE 4.6 mph - 0.02 in Rain Light Rain
5:53 PM 68.0 °F 66.0 °F 93% 29.88 in 2.5 mi SE 6.9 mph - 0.02 in Rain Light Rain
6:04 PM 69.8 °F 66.2 °F 88% 29.87 in 6.0 mi SE 5.8 mph - 0.01 in Rain Light Rain
6:26 PM 69.8 °F 66.2 °F 88% 29.86 in 8.0 mi ESE 4.6 mph - 0.01 in   Overcast
6:36 PM 69.8 °F 66.2 °F 88% 29.86 in 6.0 mi Variable 3.5 mph - 0.01 in Rain Light Rain
6:53 PM 69.1 °F 66.0 °F 90% 29.88 in 2.5 mi SE 3.5 mph - 0.02 in Rain Light Rain
7:15 PM 69.8 °F 66.2 °F 88% 29.86 in 3.0 mi East 3.5 mph - 0.01 in Rain Light Rain
7:35 PM 69.8 °F 66.2 °F 88% 29.87 in 8.0 mi Variable 3.5 mph - 0.01 in   Overcast
7:53 PM 69.1 °F 66.9 °F 93% 29.88 in 5.0 mi Variable 3.5 mph - 0.01 in   Overcast
8:07 PM 69.8 °F 66.2 °F 88% 29.87 in 1.8 mi Calm Calm - 0.00 in Rain Light Rain
8:15 PM 69.8 °F 66.2 °F 88% 29.87 in 1.8 mi West 3.5 mph - 0.01 in Rain Light Rain
8:28 PM 69.8 °F 66.2 °F 88% 29.87 in 2.5 mi Calm Calm - 0.02 in Rain Light Rain
8:38 PM 69.8 °F 66.2 °F 88% 29.86 in 3.0 mi Calm Calm - 0.02 in Rain Light Rain
8:53 PM 69.1 °F 66.9 °F 93% 29.87 in 3.0 mi Calm Calm - 0.02 in   Overcast
9:29 PM 69.8 °F 66.2 °F 88% 29.86 in 5.0 mi Calm Calm - N/A   Overcast
9:53 PM 69.1 °F 66.9 °F 93% 29.88 in 5.0 mi Calm Calm - N/A   Overcast
10:25 PM 69.8 °F 66.2 °F 88% 29.86 in 6.0 mi Calm Calm - N/A   Overcast
10:53 PM 69.1 °F 66.9 °F 93% 29.86 in 6.0 mi Calm Calm - N/A   Overcast
11:45 PM 69.8 °F 66.2 °F 88% 29.85 in 5.0 mi Calm Calm - N/A   Overcast
11:53 PM 69.1 °F 66.9 °F 93% 29.87 in 5.0 mi Calm Calm - N/A   Mostly Cloudy